User: anonymous   Login
Location: Dürabuch
(48.2640°N, 11.2185°E)
Time: 16:23:11
(UTC+00:00)
Language:

NPP - Orbit

View from above orbital plane
View from above orbital plane
View from above satellite
View from above satellite

Ground track
Ground track

The orbit data is extracted from the following two-line orbital elements,

1 37849U 11061A   24207.52742174  .00000228  00000-0  12884-3 0  9995
2 37849  98.7222 144.9326 0001699 112.7423 247.3933 14.19534959660303
Epoch (UTC): 25 July 2024 12:39:29
Eccentricity: 0.0001699
inclination: 98.7222°
perigee height: 826 km
apogee height: 828 km
right ascension of ascending node: 144.9326°
argument of perigee: 112.7423°
revolutions per day: 14.19534959
mean anomaly at epoch: 247.3933°
orbit number at epoch: 66030

The dashed part of the orbit path shows where the satellite is in the earth's shadow,  

DLR